Location: ?????
(31.8092°N, 35.2590°E)
Time: 05:40:19
(UTC+00:00)

Cosmos 2360 Rocket - Visible Passes

Search period start: 18 October 2021 00:00
Search period end: 28 October 2021 00:00
Orbit: 832 x 846 km, 71.0° (Epoch: 16 October)

Date Brightness Start Highest point End Pass type
(mag) Time Alt. Az. Time Alt. Az. Time Alt. Az.
18 Oct 3.4 16:22:02 10° SSE 16:24:49 22° SE 16:24:49 22° SE visible
18 Oct 4.5 18:05:14 10° SW 18:06:43 17° WSW 18:06:43 17° WSW visible
19 Oct 3.4 03:03:32 10° N 03:08:59 46° ENE 03:14:24 10° SE visible
19 Oct 3.2 16:06:27 10° SSE 16:10:49 24° E 16:11:21 23° E visible
19 Oct 3.7 17:49:21 10° SW 17:53:15 33° W 17:53:15 33° W visible
20 Oct 3.5 02:47:49 10° N 02:53:13 43° ENE 02:58:33 10° SE visible
20 Oct 3.3 15:50:54 10° SSE 15:55:05 22° E 15:57:54 15° ENE visible
20 Oct 3.4 17:33:30 10° SW 17:38:44 39° WNW 17:39:48 36° NW visible
21 Oct 3.6 02:32:07 10° N 02:37:26 40° ENE 02:42:42 10° SE visible
21 Oct 3.4 15:35:23 10° SE 15:39:23 20° E 15:43:23 10° NE visible
21 Oct 3.3 17:17:39 10° SW 17:22:57 42° WNW 17:26:15 21° N visible
22 Oct 3.7 02:16:25 10° N 02:21:40 37° ENE 02:26:51 10° SE visible
22 Oct 3.5 15:19:53 10° SE 15:23:39 19° E 15:27:26 10° ENE visible
22 Oct 3.1 17:01:49 10° SW 17:07:11 45° WNW 17:12:33 10° N visible
23 Oct 3.8 02:00:44 10° N 02:05:53 34° ENE 02:10:59 10° SE visible
23 Oct 3.0 16:45:59 10° SW 16:51:25 49° WNW 16:56:54 10° N visible
24 Oct 3.8 01:45:03 10° N 01:50:06 32° ENE 01:55:07 10° SE visible
24 Oct 2.9 16:30:10 10° SW 16:35:39 53° WNW 16:41:10 10° N visible
25 Oct 3.9 01:29:22 10° N 01:34:19 30° ENE 01:39:14 10° ESE visible
25 Oct 3.0 03:13:20 10° NW 03:18:09 29° WSW 03:22:58 10° SSW visible
25 Oct 2.8 16:14:21 10° SSW 16:19:52 57° WNW 16:25:27 10° N visible
26 Oct 4.0 01:14:07 12° N 01:18:32 28° ENE 01:23:19 10° ESE visible
26 Oct 2.9 02:57:28 10° NW 03:02:26 32° WSW 03:07:21 10° SSW visible
26 Oct 2.7 15:58:33 10° SSW 16:04:07 62° WNW 16:09:43 10° NNE visible
27 Oct 4.1 01:00:40 21° NNE 01:02:45 26° ENE 01:07:24 10° ESE visible
27 Oct 2.8 02:42:34 14° NW 02:46:42 34° WSW 02:51:44 10° SSW visible
27 Oct 2.6 15:42:45 10° SSW 15:48:20 67° WNW 15:53:59 10° NNE visible
